Location: Rounton
(54.4000°N, 1.3500°W)
Time: 14:55:27
(UTC+00:00)

Vanguard 2 - Pass Details

Date: 29 November 2021
Orbit: 553 x 2936 km, 32.9° (Epoch: 23 January)

Event Time Altitude Azimuth Distance (km) Brightness Sun altitude
Rises 16:46:59 0° 233° (SW) 3,892 13.2 -8.3°
Reaches altitude 10° 16:50:15 10° 216° (SW) 3,277 11.8 -8.7°
Maximum altitude 16:55:54 20° 174° (S) 3,164 10.9 -9.4°
Drops below altitude 10° 17:03:26 10° 135° (SE) 4,560 11.2 -10.4°
Sets 17:09:14 0° 121° (ESE) 6,017 11.7 -11.2°
